World > North America > United States > Pennsylvania > Burnside  

Burnside, PA Hourly Weather Updates

Feedback E-mail the Weather

Quick Clicks

Burnside, PA Weather Maps

°F °C°F °C
Burnside Weather Map
UTC Time: 7/21/2024, 07:17
Your Time:

Burnside, PA Regional Weather

Expires:202407210800;;028820
ASUS41 KCTP 210710
RWRCTP

REGIONAL WEATHER ROUNDUP
NATIONAL WEATHER SERVICE STATE COLLEGE PA
300 AM EDT SUN JUL 21 2024

Note: "fair" indicates few or no clouds below 12,000 feet with no 
significant weather and/or obstructions to visibility.

* = STATION THAT DOES NOT REPORT PRECIPITATION /E.G. RAIN...SNOW...ETC/
    THUNDER OR FOG.


PAZ004>006-010>012-017>019-024>028-033>037-041-042-045-046-049>053-210800-
CENTRAL PENNSYLVANIA
  
CITY           SKY/WX    TMP DP  RH WIND       PRES   REMARKS
BRADFORD       PTCLDY    54  53  97 CALM      30.12F                  
ST MARYS       CLOUDY    59  55  88 CALM      30.14F                  
DUBOIS         PTCLDY    64  52  64 N6        30.09F                  
CLEARFIELD     PTCLDY    63  57  81 CALM      30.09S                  
JOHNSTOWN      CLEAR     65  55  70 N7        30.11S                  
SOMERSET       CLEAR     59  55  88 CALM      30.12S                  
ALTOONA        FOG       62  61  96 CALM      30.07S VSB 1/4          
STATE COLLEGE    N/A     65  65 100 CALM      30.07S                  
REEDSVILLE     MOCLDY    66  64  94 CALM      30.04S                  
WELLSBORO      MOCLDY    61  59  94 CALM      30.09F                  
WILLIAMSPORT   MOCLDY    68  66  93 CALM      30.03S                  
SELINSGROVE    CLEAR     67  65  93 CALM      30.04S                  
FT INDIANTOWN  MOCLDY    67  65  93 CALM      30.02S                  
CAPITAL CITY   CLEAR     71  64  78 CALM      30.03S                  
HARRISBURG     PTCLDY    71  66  84 SE3       30.02S                  
YORK           PTCLDY    69  66  90 CALM      30.03F                  
$$


SKY/WX - Weather  TMP - Temperature  DP - Dew Point  RH - Humidity
WIND - Wind Direction/Speed PRES - Barometric Pressure VSB - Visibility
WCI - Wind Chill Index E13G22 Wind - East Wind 13 mph/Gusts of 22 mph

Trending Headlines

Trending Entertainment Headlines

Burnside Radar Loop

Use the map search tool if you want to place a location marker on the radar map...

Burnside Quick Facts

National Two Day Weather Forecast


E-mail the Burnside Weather Forecast

Voice your opinion or tell us about page issues...